Location: Newark
(23.3970°S, 47.6010°W)
Time: 14:26:08
(UTC+00:00)

deb Explorer IX - Pass Details

Date: 22 February 2020
Orbit: 547 x 1100 km, 38.8° (Epoch: 29 March)

Event Time Altitude Azimuth Distance (km) Brightness Sun altitude
Rises 08:33:03 0° 244° (WSW) 3,835 ? -7.3°
Reaches altitude 10° 08:36:02 10° 250° (WSW) 2,820 ? -6.7°
Maximum altitude 08:42:26 43° 319° (NW) 1,283 ? -5.3°
Drops below altitude 10° 08:48:01 10° 29° (NNE) 2,454 ? -4.0°
Sets 08:50:28 0° 36° (NE) 3,294 ? -3.5°
